Temperature
25 26 27 27 28 28 28 28 28 28 28 27 27 27 27 26 26 26 25 24 24 22 21 20 19 18 18 18 18 18 18 18 18 17 17 17 17 16 16 16 16 16 16 16
25 26 27 28 28 27 27 27 27 27 27 27 26 26 27 26 26 25 24 24 23 22 21 20 19 18 18 18 18 18 18 18 18 17 17 17 16 16 16 16 16 16 16 16
26 27 27 27 27 26 27 27 27 27 27 27 26 26 26 26 25 24 24 23 23 22 21 20 19 18 18 17 17 17 17 17 17 17 17 16 16 16 16 16 16 16 16 16
26 27 26 26 26 27 27 28 27 27 26 27 27 26 27 26 26 25 24 23 22 21 21 20 19 18 18 17 17 17 17 17 17 17 16 16 16 16 16 16 15 16 16 15
26 26 26 26 27 27 27 27 27 27 26 26 27 26 27 26 26 25 24 23 22 21 20 20 19 18 18 17 17 16 16 17 17 17 16 16 16 16 16 15 15 15 15 15
27 27 26 27 27 27 27 26 26 26 27 25 26 26 27 27 26 26 25 23 21 21 20 19 18 18 18 17 17 16 16 16 16 16 16 16 16 15 15 15 15 15 15 15
25 26 26 26 26 26 26 26 25 25 25 26 27 26 26 26 26 25 24 23 21 20 20 19 18 18 17 17 17 16 16 16 16 16 16 16 16 16 15 15 15 15 15 15
25 25 26 26 26 26 26 26 25 25 25 26 26 26 27 25 24 24 23 22 20 20 19 19 18 18 17 17 16 16 16 16 16 16 16 16 16 15 15 15 15 15 15 15
25 25 26 26 27 27 26 26 27 26 26 25 26 26 25 24 24 23 22 21 20 19 19 18 18 17 17 17 16 16 16 16 16 16 16 16 15 15 15 15 15 15 15 15
26 25 26 26 26 26 27 27 26 26 24 24 25 26 26 24 24 23 22 21 20 19 18 18 17 17 17 16 16 16 15 15 16 16 15 15 15 15 15 15 15 15 15 15
25 24 25 25 25 26 25 26 26 26 26 25 25 26 26 25 24 23 22 21 20 19 18 18 17 17 16 16 16 15 15 15 15 15 15 15 15 15 15 15 15 15 15 15
25 25 24 25 26 26 26 26 26 25 25 25 25 25 24 24 24 23 22 20 19 19 18 17 17 16 16 16 16 16 15 15 15 15 15 15 15 15 15 15 14 14 14 14
24 23 23 24 24 25 25 26 26 26 25 25 25 25 23 23 22 21 21 20 18 18 17 17 17 16 16 16 16 15 15 15 15 15 15 15 15 15 15 14 14 14 14 14
23 23 23 23 24 25 24 25 25 25 25 25 25 25 23 23 22 21 20 19 18 17 16 16 16 16 16 15 15 15 15 15 15 15 15 14 14 14 14 14 14 14 14 14
22 22 23 24 25 25 24 24 25 25 25 25 25 25 24 23 22 21 19 18 18 17 16 16 16 16 15 15 15 15 15 15 15 14 14 14 14 14 14 14 14 14 14 14
21 22 23 23 24 24 24 24 24 24 25 24 24 23 23 22 21 20 19 18 18 17 16 16 16 15 15 15 15 15 15 14 14 14 14 14 14 14 14 14 13 13 13 13
21 21 22 22 23 23 23 23 23 24 24 24 23 23 22 21 20 19 19 18 18 17 16 16 15 15 15 14 14 14 14 14 14 14 14 14 14 13 13 13 13 13 13 13
20 21 22 22 22 21 23 23 23 23 22 23 22 22 21 20 19 18 18 18 17 17 16 15 15 14 14 14 14 14 14 14 14 14 13 14 13 13 13 13 13 13 13 13
20 20 21 22 21 22 21 21 21 21 21 21 21 20 20 19 18 18 17 17 17 16 15 15 14 14 14 14 14 14 14 14 14 13 13 13 13 13 13 13 13 13 12 12
19 20 21 21 21 21 21 20 20 21 20 19 19 19 19 19 19 18 16 16 16 15 14 14 14 14 14 13 13 13 13 13 13 13 13 13 13 13 12 12 12 12 12 12
19 19 20 20 20 20 19 19 20 20 19 18 18 18 17 18 18 16 15 15 15 14 14 14 13 13 13 13 13 13 13 13 13 13 13 13 12 12 12 12 12 12 12 12
19 20 20 20 20 19 18 18 19 18 17 17 16 16 16 16 15 15 15 14 14 14 13 13 13 13 13 13 13 13 13 13 13 13 13 12 12 12 12 12 12 12 12 12
17 18 18 18 17 16 16 16 15 15 15 15 15 15 15 15 15 15 14 14 14 13 13 13 13 13 12 12 12 12 12 12 12 12 12 12 12 12 12 12 12 11 11 12
16 16 17 16 16 15 15 14 14 14 14 14 14 14 15 15 15 14 14 14 13 13 13 13 13 12 12 12 12 12 12 12 12 12 12 12 12 12 12 12 12 12 12 12
15 15 16 15 15 15 14 14 14 14 14 14 14 14 14 14 14 14 14 13 13 13 12 12 12 12 12 12 12 12 12 12 11 11 11 11 11 12 11 11 11 11 11 11
14 14 15 15 14 14 14 13 13 13 13 13 13 14 14 14 14 13 13 13 13 12 12 12 12 12 12 12 11 11 11 11 11 11 11 11 12 11 12 12 11 11 11 11
Wind_Speed
11 13 15 13 13 10 8 9 8 6 4 6 8 8 6 5 6 6 5 5 5 4 3 3 4 4 5 5 5 5 5 6 5 4 4 3 3 3 3 3 3 4 4 4
12 16 14 10 10 11 10 11 9 6 5 6 7 9 7 7 7 5 5 5 5 5 4 3 4 4 5 5 5 5 5 6 6 4 4 3 3 2 2 2 2 3 3 4
17 9 10 12 12 13 13 12 10 7 5 7 8 10 10 8 7 6 5 5 5 5 5 4 4 5 5 5 5 5 5 5 6 5 4 3 2 2 2 2 2 2 3 4
14 10 11 13 14 13 13 10 10 9 9 8 8 9 8 9 8 7 6 6 5 5 5 4 5 5 5 5 5 5 5 5 5 6 5 5 4 3 3 3 2 2 2 3
12 12 13 15 14 13 10 7 9 10 10 10 10 10 6 8 9 8 7 6 6 5 5 4 4 5 5 5 5 5 6 6 6 6 6 5 4 3 3 3 3 3 3 3
11 9 11 12 11 11 8 7 8 9 10 12 11 10 7 6 7 7 6 6 6 5 5 4 4 4 4 4 5 5 6 6 6 6 6 5 4 4 4 3 3 3 3 3
12 13 11 10 11 12 13 11 8 9 10 9 6 8 6 2 3 5 6 6 5 5 5 5 5 4 4 5 5 5 6 6 6 6 6 5 5 4 4 3 3 3 3 3
13 13 13 12 13 11 15 15 10 8 8 6 6 8 3 3 3 4 5 5 5 5 5 5 5 4 4 5 5 5 5 5 6 6 5 5 4 3 3 4 3 4 3 3
10 10 11 12 12 13 14 15 12 10 10 8 7 6 4 5 5 6 6 6 5 5 5 5 4 4 4 5 4 4 5 5 5 5 6 5 4 3 3 3 3 3 3 3
8 9 10 10 10 12 13 12 10 10 9 10 8 9 6 8 7 7 6 6 6 6 5 5 4 4 4 4 5 5 5 5 5 5 5 5 5 4 3 3 3 3 3 3
10 9 10 12 13 14 12 14 12 11 10 9 8 5 2 5 7 7 6 6 6 7 6 6 5 5 5 5 5 5 5 5 5 5 5 5 4 4 4 3 3 3 3 3
9 8 10 12 10 9 13 14 14 12 10 11 10 4 4 3 5 6 6 6 6 6 6 6 6 6 6 6 5 5 5 5 5 6 6 5 5 4 4 3 3 3 3 3
7 7 9 10 10 10 13 14 14 13 11 11 12 5 5 5 5 5 5 6 6 6 6 6 6 6 5 6 5 6 6 5 5 5 6 5 5 5 4 4 3 3 3 3
5 8 11 12 9 10 12 13 14 15 13 13 13 9 5 5 6 6 6 6 6 6 6 6 6 6 6 5 5 5 6 5 5 5 6 5 5 4 4 4 3 3 3 3
6 9 11 10 8 10 11 13 14 16 15 14 11 9 7 5 6 6 7 7 7 7 6 6 6 5 5 5 5 5 5 5 5 5 5 5 4 4 3 3 3 3 3 3
6 8 9 10 8 9 11 12 13 14 13 12 10 8 4 4 5 6 8 8 8 8 8 7 6 6 6 5 5 5 6 5 5 5 5 5 4 4 4 3 3 3 3 3
7 7 9 10 8 8 12 12 12 12 11 11 10 7 5 6 6 7 8 9 8 7 7 7 6 5 5 5 5 5 5 6 5 5 5 5 4 4 4 3 4 3 3 3
8 8 7 8 7 11 4 3 6 8 7 6 4 3 5 4 4 5 7 7 7 6 6 6 5 5 5 5 5 5 5 5 5 5 4 4 4 4 4 3 3 3 2 2
8 8 7 8 10 8 4 3 4 6 6 3 3 3 4 5 5 5 5 6 6 6 6 6 5 5 5 5 5 5 5 5 5 5 4 4 4 4 4 3 3 3 2 2
7 8 8 8 10 9 2 1 3 6 6 4 4 5 6 6 5 4 5 5 6 6 6 6 5 6 6 5 5 5 5 5 5 5 4 4 4 4 3 3 3 2 2 2
7 8 10 10 9 4 3 1 3 7 2 4 4 5 4 3 0 4 6 6 6 6 6 6 6 5 5 5 5 5 5 4 4 4 5 4 4 3 3 3 3 2 2 2
6 6 8 8 8 3 4 2 2 1 3 4 4 4 3 2 4 5 6 6 6 6 6 7 6 5 5 5 5 5 4 3 3 4 4 4 4 3 3 3 3 3 2 3
2 2 3 2 0 4 3 2 2 2 2 2 2 2 3 3 4 4 5 6 6 6 6 6 6 6 5 5 4 4 4 4 4 3 3 4 4 3 3 4 4 4 3 3
1 1 1 2 1 2 2 3 2 1 0 0 1 2 3 3 3 4 5 5 5 6 7 6 6 6 5 5 4 4 4 4 4 4 3 3 4 4 3 3 3 3 2 2
2 1 2 2 1 1 1 2 2 2 1 0 1 2 2 3 3 4 4 5 5 5 6 6 6 5 5 5 4 4 4 4 4 4 3 3 4 3 3 2 1 2 1 1
2 2 3 2 1 2 1 2 2 1 1 0 1 1 2 2 3 4 4 4 5 5 5 5 5 5 5 5 4 3 3 4 4 3 3 3 3 3 3 2 2 3 1 2
Wind_Direction
194 210 214 211 219 244 242 239 233 225 197 228 237 248 243 217 220 219 216 207 195 188 168 161 167 166 164 167 169 175 175 167 170 166 175 178 191 194 180 182 181 195 202 202
200 218 219 217 219 231 234 235 232 216 201 238 243 249 243 229 223 219 215 205 197 193 178 166 169 168 169 169 171 174 177 170 173 172 177 177 186 193 179 174 167 194 199 201
214 213 206 212 215 222 229 235 236 232 221 231 241 244 226 211 215 210 214 211 199 198 191 182 176 170 169 171 176 179 176 171 172 164 158 145 157 179 165 174 176 189 192 192
222 215 203 213 218 222 231 230 236 232 237 239 231 260 220 206 208 209 209 205 199 198 195 187 178 175 176 177 175 172 171 169 168 165 167 170 178 180 177 186 180 167 179 185
215 209 211 219 220 220 231 222 226 233 242 254 236 253 235 197 215 210 203 199 199 198 194 188 184 178 178 174 168 168 166 169 167 169 171 179 181 176 171 171 162 174 175 183
224 211 219 224 219 215 206 201 216 230 239 243 238 246 247 209 217 206 195 193 194 192 188 182 177 177 176 168 166 166 161 163 163 168 169 173 172 166 157 161 167 178 174 177
214 212 209 213 204 197 203 208 217 221 224 237 211 237 246 185 206 206 194 187 185 184 181 176 176 177 175 165 164 164 159 159 161 162 162 163 169 172 170 179 184 185 176 177
211 210 200 203 211 205 209 218 229 239 241 236 202 237 218 149 174 187 185 176 174 180 179 178 178 175 169 163 161 155 157 158 160 160 156 156 167 176 176 186 195 189 185 176
213 210 189 200 213 222 216 223 239 256 259 256 232 224 201 176 184 182 181 177 176 177 175 177 175 171 165 159 155 151 152 151 155 155 151 151 159 162 151 155 183 176 160 157
224 220 200 196 207 217 228 223 227 238 243 248 240 235 228 185 190 186 188 186 178 169 167 172 170 166 161 152 148 144 144 147 150 147 151 145 147 150 145 141 137 137 149 153
223 222 204 200 211 209 206 214 223 235 243 251 254 238 156 182 187 186 182 177 174 175 169 166 166 160 155 152 149 146 141 141 141 142 139 134 139 144 146 142 138 135 138 145
210 224 220 215 216 226 219 220 220 228 236 246 260 249 104 149 166 173 169 161 160 163 162 160 158 151 151 151 151 147 144 141 140 140 139 137 138 141 142 133 127 130 132 134
194 212 215 208 203 209 219 222 225 233 243 245 250 236 130 148 155 167 164 154 149 150 153 155 155 153 155 153 153 150 151 146 142 139 139 137 137 135 133 128 131 133 130 129
209 222 229 229 226 209 215 219 223 229 237 244 247 248 202 184 177 178 172 162 156 149 150 159 164 161 157 154 153 151 148 147 145 141 140 138 138 138 139 137 137 138 134 133
213 229 237 250 253 226 223 226 225 230 241 251 254 253 234 205 196 184 174 167 163 154 156 166 167 155 152 152 152 147 144 145 146 146 142 140 141 138 139 139 137 140 142 140
213 232 232 238 236 229 229 231 231 234 239 246 250 252 230 196 188 185 184 179 174 168 167 168 166 161 157 155 153 149 148 145 147 150 146 141 143 142 138 136 133 136 135 134
206 218 228 233 227 229 231 229 230 233 237 242 248 239 190 189 193 191 186 185 179 169 164 163 162 160 159 156 154 151 149 151 151 148 146 144 148 145 148 150 138 134 140 141
219 223 229 234 219 232 229 191 226 231 235 244 230 195 184 183 179 181 183 181 174 169 165 162 159 154 147 144 148 149 152 155 153 149 148 149 149 150 152 153 145 138 136 139
219 221 230 229 228 231 200 185 211 225 226 211 193 164 152 144 153 165 172 179 171 161 156 154 154 151 148 149 147 147 150 155 152 150 150 148 151 153 157 154 147 146 146 152
197 221 229 229 234 234 209 173 242 236 222 164 174 169 165 177 198 172 152 159 154 142 141 145 146 146 149 150 150 154 153 155 156 153 151 147 147 151 155 148 150 152 167 176
197 209 225 232 234 228 32 33 212 223 225 135 160 161 175 199 146 123 143 148 144 142 144 147 146 143 144 148 151 153 150 151 151 149 146 145 146 152 152 150 154 167 183 178
226 224 222 231 228 212 39 160 194 33 65 121 137 147 155 137 123 132 140 143 145 147 150 149 145 141 141 146 153 153 149 147 144 146 149 147 149 160 153 158 170 182 195 192
245 292 259 246 205 60 56 50 39 49 96 121 145 151 159 157 157 155 148 150 149 146 148 147 145 143 141 148 157 158 151 152 152 151 155 157 158 161 166 175 179 190 202 220
211 326 219 176 114 74 55 42 29 39 86 188 197 196 194 186 174 168 157 154 155 150 149 150 149 151 153 159 160 155 157 159 159 160 164 166 170 171 170 194 198 206 209 228
312 276 233 206 202 184 79 28 16 25 29 97 177 197 188 174 166 164 160 158 160 154 153 156 156 161 162 156 148 148 154 161 163 166 177 187 187 173 174 187 210 224 213 286
298 273 258 255 259 272 269 320 339 13 55 96 162 147 145 154 155 154 151 151 160 155 152 155 160 159 154 148 142 140 149 157 165 175 186 196 197 184 198 189 169 85 74 94
Height
1486 1485 1481 1478 1478 1477 1478 1481 1484 1483 1484 1487 1487 1487 1487 1490 1492 1492 1494 1495 1497 1499 1501 1502 1502 1503 1503 1504 1505 1506 1508 1509 1510 1511 1513 1514 1515 1516 1517 1518 1518 1519 1520 1521
1483 1480 1475 1476 1478 1480 1480 1483 1482 1482 1484 1486 1487 1486 1485 1487 1489 1491 1492 1494 1496 1498 1499 1500 1501 1501 1502 1502 1503 1504 1505 1507 1508 1509 1511 1512 1514 1515 1516 1517 1517 1518 1518 1519
1475 1472 1474 1477 1479 1482 1480 1481 1480 1483 1483 1484 1486 1486 1482 1484 1487 1489 1491 1492 1494 1496 1498 1499 1499 1500 1500 1501 1501 1503 1504 1505 1507 1508 1510 1512 1513 1514 1514 1515 1516 1516 1517 1518
1471 1470 1474 1476 1476 1477 1479 1474 1478 1481 1485 1482 1483 1487 1477 1478 1482 1485 1488 1490 1492 1494 1496 1497 1498 1498 1499 1499 1500 1501 1502 1503 1505 1507 1508 1510 1511 1512 1513 1514 1515 1515 1516 1517
1468 1468 1472 1474 1472 1473 1473 1473 1476 1478 1480 1482 1480 1484 1474 1474 1478 1480 1484 1488 1490 1492 1494 1495 1496 1497 1497 1498 1499 1499 1500 1502 1503 1505 1507 1508 1509 1510 1512 1512 1513 1514 1514 1515
1463 1466 1468 1468 1469 1471 1473 1476 1477 1477 1477 1488 1478 1482 1476 1469 1472 1476 1481 1485 1489 1491 1492 1494 1495 1496 1496 1497 1498 1499 1499 1500 1502 1504 1505 1507 1508 1509 1510 1511 1512 1513 1514 1514
1466 1464 1465 1467 1469 1472 1473 1478 1487 1489 1486 1481 1470 1478 1473 1468 1471 1475 1479 1483 1487 1489 1491 1492 1493 1494 1495 1496 1497 1497 1498 1499 1501 1502 1504 1505 1507 1508 1509 1510 1511 1512 1513 1514
1465 1466 1461 1463 1464 1466 1468 1470 1482 1489 1484 1473 1473 1475 1466 1468 1473 1476 1479 1483 1486 1488 1490 1491 1492 1493 1494 1495 1496 1496 1497 1499 1500 1502 1503 1505 1506 1508 1508 1509 1510 1511 1512 1513
1458 1460 1456 1459 1460 1461 1465 1465 1461 1469 1470 1476 1470 1466 1467 1470 1473 1476 1479 1482 1484 1486 1488 1490 1491 1492 1493 1494 1495 1496 1497 1498 1500 1502 1503 1504 1505 1507 1508 1508 1509 1510 1511 1512
1451 1459 1455 1457 1459 1460 1458 1459 1464 1470 1481 1483 1471 1468 1464 1468 1470 1473 1477 1480 1483 1485 1487 1489 1490 1491 1492 1493 1494 1495 1497 1498 1500 1501 1503 1504 1505 1506 1507 1508 1508 1509 1510 1511
1450 1458 1457 1457 1458 1456 1460 1462 1462 1463 1463 1474 1477 1468 1456 1462 1467 1471 1475 1478 1481 1484 1486 1488 1489 1490 1491 1493 1494 1495 1497 1498 1500 1501 1503 1504 1505 1506 1507 1508 1509 1509 1510 1510
1451 1453 1456 1453 1449 1450 1452 1454 1458 1468 1468 1465 1467 1467 1459 1462 1466 1471 1474 1478 1481 1483 1485 1487 1488 1490 1491 1492 1494 1495 1497 1498 1499 1501 1502 1504 1505 1506 1507 1508 1509 1509 1510 1510
1452 1456 1462 1460 1458 1455 1453 1452 1452 1455 1459 1463 1467 1466 1462 1464 1468 1472 1475 1478 1481 1483 1485 1487 1488 1489 1491 1492 1494 1495 1496 1498 1500 1501 1502 1504 1505 1506 1507 1508 1509 1509 1510 1510
1454 1453 1455 1457 1451 1448 1452 1452 1452 1454 1458 1459 1457 1457 1460 1462 1467 1471 1474 1477 1480 1482 1484 1486 1487 1489 1490 1492 1493 1495 1496 1498 1499 1501 1502 1503 1504 1506 1507 1507 1508 1509 1510 1511
1452 1452 1449 1446 1443 1444 1448 1450 1450 1451 1450 1453 1452 1453 1456 1460 1465 1469 1473 1476 1479 1481 1483 1485 1487 1488 1490 1491 1492 1493 1495 1497 1499 1501 1502 1503 1504 1505 1506 1507 1508 1509 1510 1511
1453 1452 1450 1450 1445 1445 1448 1447 1447 1448 1448 1449 1451 1456 1456 1461 1465 1469 1472 1474 1476 1479 1481 1483 1485 1487 1489 1490 1492 1493 1494 1496 1498 1500 1502 1503 1504 1505 1506 1507 1508 1508 1509 1510
1450 1452 1452 1450 1445 1447 1451 1446 1446 1447 1446 1449 1451 1453 1457 1461 1464 1467 1470 1472 1474 1477 1480 1482 1484 1486 1487 1489 1490 1492 1494 1495 1497 1499 1501 1502 1503 1504 1506 1507 1507 1508 1509 1510
1451 1451 1449 1447 1452 1460 1446 1443 1444 1446 1448 1449 1451 1454 1458 1461 1465 1467 1470 1472 1474 1476 1479 1481 1483 1485 1487 1488 1490 1491 1493 1495 1496 1498 1500 1501 1502 1504 1505 1506 1507 1507 1508 1509
1450 1450 1448 1447 1449 1448 1447 1446 1448 1449 1451 1453 1454 1457 1460 1463 1465 1468 1470 1472 1474 1476 1478 1480 1482 1484 1486 1487 1489 1491 1493 1494 1496 1498 1499 1501 1502 1503 1504 1505 1506 1506 1507 1508
1449 1448 1447 1446 1451 1452 1447 1447 1449 1451 1453 1455 1456 1458 1460 1461 1462 1465 1470 1471 1473 1475 1477 1479 1481 1483 1485 1487 1489 1490 1492 1494 1496 1497 1498 1500 1501 1502 1503 1504 1504 1505 1506 1507
1447 1448 1446 1445 1447 1446 1450 1450 1451 1456 1454 1456 1457 1459 1461 1461 1462 1467 1469 1471 1472 1474 1476 1478 1480 1482 1484 1486 1487 1489 1491 1493 1495 1496 1497 1498 1500 1501 1502 1503 1503 1504 1505 1506
1445 1444 1445 1444 1448 1453 1454 1452 1453 1456 1457 1457 1459 1461 1462 1463 1464 1466 1468 1470 1472 1473 1475 1477 1479 1481 1483 1485 1486 1488 1490 1492 1493 1495 1496 1497 1498 1500 1501 1502 1502 1503 1504 1504
1448 1449 1446 1449 1455 1457 1457 1457 1459 1459 1459 1459 1460 1462 1463 1463 1465 1466 1468 1470 1472 1473 1475 1477 1479 1481 1482 1484 1486 1487 1489 1490 1492 1493 1495 1496 1497 1499 1500 1501 1501 1502 1502 1503
1452 1453 1451 1453 1456 1458 1459 1459 1459 1459 1459 1460 1460 1461 1462 1463 1464 1466 1467 1469 1471 1473 1474 1476 1478 1480 1481 1483 1485 1486 1487 1489 1490 1492 1493 1495 1496 1497 1498 1499 1500 1501 1501 1501
1455 1454 1454 1455 1458 1459 1460 1460 1460 1459 1459 1459 1459 1460 1461 1462 1464 1465 1467 1468 1470 1472 1473 1475 1477 1479 1480 1482 1484 1485 1486 1487 1489 1490 1492 1493 1495 1496 1496 1497 1498 1499 1499 1499
1457 1457 1456 1455 1458 1458 1460 1460 1460 1459 1459 1459 1459 1460 1461 1462 1463 1464 1466 1467 1469 1471 1473 1474 1476 1478 1479 1481 1482 1483 1485 1486 1487 1489 1490 1492 1493 1494 1495 1496 1496 1496 1497 1497